Wind_Speed
44 43 42 42 41 40 39 38 38 37 37 37 38 38 37 37 37 38 39 40 39 41 42 42 42 42 43 43 43 42 42 41 41 41 42 43 43 42 42 41 42 42 42 42 42 42 43 43 44 43 43 44 44 44 44 44 44 44 44 43 43 43 42 42 43 43 40 39 39 36 33 33 36 37 38 38 36 35 34 32 32 32 31 30 30
41 41 40 40 39 38 37 36 36 36 36 36 36 36 36 37 37 38 38 37 37 38 38 39 39 40 41 41 41 41 40 40 40 40 42 43 43 43 43 43 43 42 42 43 42 42 43 43 43 42 42 43 42 42 43 42 43 43 42 43 43 42 41 41 42 43 42 40 40 40 38 36 36 36 37 39 38 36 35 33 32 32 32 31 30
38 38 38 37 37 36 35 35 35 35 35 35 36 36 36 36 37 37 38 37 36 37 37 37 37 38 38 39 39 38 38 38 38 38 40 41 42 43 43 43 43 43 43 43 42 42 42 43 43 41 41 41 41 41 41 41 41 42 42 42 42 41 40 40 41 43 44 43 42 43 42 39 37 35 36 39 39 37 36 34 33 33 32 32 31
34 34 34 34 33 33 33 33 33 33 34 35 36 37 37 37 37 37 37 37 37 37 37 38 38 38 38 38 37 37 38 37 37 37 38 39 40 41 42 43 43 43 43 42 42 41 42 43 42 41 40 41 40 40 40 41 41 41 41 41 41 41 41 41 42 43 45 45 45 45 44 43 40 36 36 38 38 37 36 35 34 33 33 32 31
33 34 34 33 33 32 32 32 33 34 35 36 36 37 37 37 37 37 38 38 38 38 38 38 39 40 40 40 40 40 40 40 40 40 40 40 40 41 41 42 43 44 44 43 41 41 41 42 41 40 41 41 41 40 40 40 41 41 42 42 42 42 42 42 43 44 45 47 46 46 46 45 43 39 36 37 37 36 36 36 36 34 33 32 32
35 36 37 37 36 35 35 35 36 37 37 38 38 39 40 40 40 40 41 41 41 41 41 41 42 43 43 43 43 43 43 43 44 44 44 44 44 44 43 43 44 44 44 44 43 42 42 42 41 41 42 42 41 41 41 41 42 43 44 45 45 44 44 44 44 45 46 47 47 47 47 47 45 41 37 35 36 36 36 37 37 36 34 33 33
37 38 39 40 40 40 41 41 41 42 42 42 42 43 44 45 45 46 47 47 47 46 47 47 48 48 48 47 47 46 46 46 47 47 47 47 48 48 48 47 47 46 46 46 45 44 44 43 43 43 44 44 44 44 44 45 46 47 47 47 47 47 48 48 47 47 47 48 48 48 48 47 45 43 38 36 36 36 37 37 38 37 36 36 35
42 42 42 43 44 45 46 45 46 46 47 46 46 45 46 46 47 47 48 49 49 49 49 50 50 51 51 51 50 50 50 50 50 50 50 50 50 50 51 51 51 50 49 48 47 47 47 46 47 47 47 47 47 47 47 48 48 49 49 48 48 48 49 49 48 48 48 48 48 48 48 47 45 43 40 38 37 37 36 37 38 37 37 38 37
50 49 48 47 49 50 51 50 50 49 49 48 47 47 46 46 46 47 46 47 47 47 48 49 50 51 51 51 50 50 50 51 51 51 52 52 53 53 53 53 53 53 53 51 50 50 49 49 49 49 49 50 50 49 49 49 50 50 49 49 48 48 48 48 48 49 49 49 49 48 47 47 45 43 41 40 38 37 37 38 38 38 39 39 39
58 58 56 54 53 54 54 54 54 52 51 50 49 48 48 47 47 47 48 48 48 48 48 48 49 51 51 51 50 49 49 49 49 50 50 51 52 53 54 54 54 54 54 54 53 52 52 51 50 50 50 51 51 51 51 51 51 51 50 49 49 49 49 49 50 50 50 49 49 48 48 47 45 42 41 40 39 39 39 39 39 38 39 41 42
57 59 60 59 58 57 57 56 56 55 53 52 51 51 51 50 49 49 49 50 50 50 50 50 50 50 51 51 51 50 50 49 49 50 50 51 51 52 52 52 52 52 53 54 54 54 53 53 52 51 51 51 51 51 51 51 52 51 51 51 50 50 49 50 50 50 50 50 49 48 48 46 43 42 42 41 41 41 41 41 40 39 40 42 43
46 49 50 53 55 57 57 57 57 57 55 53 52 52 52 52 51 50 50 50 51 51 51 51 51 51 52 52 52 52 51 50 51 52 52 52 53 54 54 53 52 51 52 53 53 54 54 54 54 53 52 51 51 51 52 52 52 53 52 52 52 51 51 50 50 50 50 49 49 48 47 45 43 43 42 41 41 42 42 42 41 41 42 42 42
43 44 45 46 48 51 53 54 55 57 57 55 53 53 53 52 52 51 51 51 51 51 51 51 51 51 52 53 53 53 53 52 52 53 54 54 55 57 56 56 55 54 53 53 53 53 54 54 55 54 54 52 51 51 52 52 52 53 53 53 53 52 51 51 50 49 49 49 49 48 46 45 44 43 41 41 42 43 43 43 43 43 43 42 42
45 46 47 47 48 49 50 51 52 53 54 54 54 53 52 52 52 52 53 53 53 52 52 52 52 52 53 54 54 54 53 53 53 54 54 55 56 58 58 58 58 58 57 56 55 55 55 55 55 55 55 55 54 52 51 51 51 52 53 53 53 52 52 51 50 49 49 49 49 48 46 44 44 43 42 43 44 45 45 44 43 43 43 42 42
49 50 50 50 51 51 52 51 51 51 52 52 53 52 52 52 53 53 54 54 55 55 54 54 54 54 54 55 56 55 54 53 54 55 55 56 57 58 59 59 60 60 60 59 59 58 57 57 57 56 56 56 56 54 53 52 52 53 53 54 53 52 52 51 50 49 49 49 49 47 45 45 45 44 44 45 46 45 45 45 45 44 43 44 45
51 52 53 54 54 54 53 53 52 52 52 52 53 53 54 54 55 55 56 56 56 56 56 56 56 56 56 56 57 57 55 55 56 56 56 57 58 59 60 60 61 61 61 61 62 62 61 61 60 59 57 56 56 56 56 55 54 54 54 54 54 53 52 51 51 50 50 49 49 48 47 46 46 45 46 46 46 46 46 46 46 45 45 46 46
50 52 53 55 55 56 56 56 56 56 55 55 56 57 57 57 57 57 57 56 56 56 57 57 57 57 58 58 58 59 57 56 56 56 55 56 57 58 60 61 62 62 62 62 63 63 63 63 63 63 62 59 57 57 58 58 58 58 57 56 55 54 53 52 52 52 51 50 50 49 48 48 47 47 47 48 48 47 47 48 47 46 45 46 45
49 50 51 52 54 55 56 57 58 59 59 60 60 59 59 58 57 57 57 57 56 56 56 56 56 57 58 58 59 59 59 58 58 57 56 55 56 56 57 59 61 62 63 63 64 64 64 64 64 65 65 64 62 61 60 60 60 60 60 59 57 56 55 54 54 53 52 52 51 50 50 49 49 49 49 49 49 49 49 49 47 46 46 45 45
50 50 50 50 51 53 54 54 54 55 56 57 58 58 58 57 56 56 55 56 56 56 56 56 56 56 57 57 58 59 60 59 59 59 58 57 57 56 56 57 58 59 60 61 63 64 64 64 64 64 65 65 65 65 64 63 63 62 62 62 61 59 57 56 56 55 54 53 52 51 51 51 51 51 51 51 51 51 51 50 48 47 47 46 45
47 48 48 49 51 52 53 53 53 52 53 53 54 55 55 56 56 56 55 55 55 55 55 56 56 56 56 57 58 59 60 60 60 60 60 60 60 59 58 58 58 58 58 58 59 60 61 62 63 63 62 63 64 66 67 67 66 64 64 64 64 61 58 57 57 57 56 55 54 53 54 53 53 54 54 54 53 53 52 52 49 47 47 47 47
46 47 49 51 52 52 52 52 52 52 51 51 52 52 53 53 54 54 54 54 54 54 54 54 55 55 55 55 56 58 59 60 60 60 60 60 61 61 60 60 59 59 59 59 58 58 57 58 59 59 60 60 61 64 66 67 67 67 66 66 64 61 59 58 58 58 58 57 56 56 56 56 56 57 56 56 55 55 54 52 50 48 49 49 48
48 49 51 52 52 51 51 50 50 50 50 50 51 51 52 52 52 53 53 53 53 54 54 54 54 54 53 53 54 55 55 56 57 58 58 58 59 59 59 58 58 59 60 60 59 58 57 57 56 56 56 57 58 60 63 64 66 66 66 65 64 61 60 60 60 60 61 60 59 58 58 59 59 58 58 58 56 54 53 52 50 50 50 49 47
48 49 49 49 49 48 48 48 48 47 48 48 48 49 50 50 51 52 52 52 52 52 52 52 52 53 52 52 52 53 53 53 53 54 54 55 56 56 56 55 55 56 58 59 59 59 59 58 57 55 54 54 55 58 60 62 63 64 64 64 63 61 60 60 62 63 63 61 60 60 60 60 60 59 59 59 56 54 54 52 50 50 49 49 48
44 45 45 45 44 43 43 43 44 44 45 45 45 46 47 47 48 49 50 50 51 51 51 51 51 51 51 51 52 53 54 54 53 53 53 52 52 53 54 53 53 54 55 56 56 57 57 58 57 56 54 53 53 55 58 60 62 62 61 61 61 61 60 60 62 64 63 62 62 62 61 59 59 59 59 57 55 54 55 53 51 50 50 49 48
41 40 39 39 38 38 39 39 40 41 42 42 43 43 44 45 46 47 47 48 49 50 51 51 52 52 52 52 53 54 55 55 55 55 55 54 52 51 51 51 52 52 52 53 53 54 54 55 55 55 54 53 52 52 55 58 60 60 59 59 59 59 59 60 62 64 64 62 61 61 59 57 57 58 58 56 55 55 55 53 51 50 49 48 47
39 38 37 37 37 38 38 39 40 41 41 41 42 43 43 45 45 46 47 48 49 50 51 52 52 53 54 54 54 55 56 56 56 56 56 56 55 52 50 49 50 51 50 50 50 50 51 51 52 52 52 51 51 51 52 55 57 58 58 56 57 58 58 58 60 62 62 61 60 59 57 54 54 55 57 56 54 53 52 50 49 48 48 47 47
38 37 37 38 38 39 39 38 39 40 40 41 42 43 44 45 46 47 48 48 49 50 51 52 52 53 53 53 53 54 54 55 55 55 55 55 54 53 51 49 50 50 49 49 49 48 48 48 48 49 49 49 49 50 51 53 54 55 55 54 54 55 56 56 57 58 58 57 56 55 54 52 52 54 55 54 52 50 48 48 48 49 49 48 48
38 37 37 37 37 38 38 37 37 37 38 39 41 42 43 44 45 47 48 49 49 50 50 50 51 51 51 51 50 50 51 51 52 52 52 52 52 52 51 50 50 50 50 49 49 48 47 46 46 46 47 48 48 49 50 52 52 52 52 52 51 52 53 53 53 53 53 53 53 53 53 53 53 53 52 51 50 49 48 48 49 50 49 47 45
40 39 38 37 36 36 37 37 36 36 36 36 38 39 41 41 42 43 44 45 46 47 48 48 48 47 47 47 47 47 47 47 48 48 47 48 48 48 48 48 48 49 51 51 50 49 47 46 46 46 46 47 48 49 49 50 50 49 49 49 48 49 50 51 50 49 49 50 52 53 53 54 54 52 50 49 49 48 48 48 48 47 45 44 43
41 41 40 38 37 36 36 37 37 36 36 36 36 37 39 40 40 40 41 42 43 43 44 44 44 44 44 44 44 45 45 45 45 44 44 44 44 44 45 45 45 47 50 51 51 49 46 45 45 45 46 46 47 48 48 48 48 48 47 47 47 48 48 48 48 47 47 49 50 51 51 52 52 51 50 48 47 46 45 44 43 43 42 42 43
39 39 40 39 38 38 38 38 38 38 37 37 36 36 37 38 39 40 40 40 41 41 42 42 42 42 42 42 42 43 43 43 43 41 41 41 41 41 41 41 41 43 46 48 47 45 42 41 41 42 43 44 44 44 44 45 45 46 46 47 49 49 48 47 46 46 45 46 47 48 48 47 47 47 47 47 46 44 43 42 41 41 42 43 44
37 37 37 37 38 38 38 39 39 39 39 38 38 38 38 38 38 38 40 41 41 40 40 40 40 40 40 40 41 41 41 40 40 40 39 39 39 39 39 38 38 38 39 40 39 36 34 34 36 37 39 40 40 40 40 40 41 42 43 45 47 49 49 46 44 43 43 44 44 43 43 43 43 43 43 43 43 43 43 43 44 44 45 46 46
37 37 36 36 36 37 37 38 39 39 39 39 38 38 38 38 37 36 37 39 40 41 40 39 38 38 37 38 38 38 39 39 38 37 37 36 36 36 35 35 33 32 31 32 31 28 27 29 30 32 33 35 35 36 36 36 36 37 38 39 41 44 44 42 40 39 40 40 39 38 38 38 39 39 39 40 41 43 44 45 46 47 49 49 49
37 37 37 36 36 36 36 36 37 37 38 38 38 38 37 38 38 37 36 35 37 39 40 40 38 37 36 36 36 37 37 37 37 35 34 34 34 33 32 30 29 28 27 27 26 24 23 23 24 26 27 28 29 30 31 31 31 31 32 33 34 36 38 38 37 36 35 35 35 35 36 36 36 37 39 40 41 43 44 45 46 47 47 47 46
33 33 34 34 34 34 34 34 34 35 35 35 36 36 36 36 36 36 36 36 35 34 35 37 37 36 35 34 35 35 35 36 35 34 33 32 31 30 28 27 26 25 25 24 23 21 20 19 19 19 20 21 23 24 25 26 27 28 28 29 29 30 32 33 33 33 32 32 33 35 36 36 37 38 39 41 42 43 44 44 44 43 42 41 40
30 29 30 30 30 30 31 31 31 31 31 31 32 32 33 33 34 34 35 35 35 34 34 33 34 34 33 33 33 34 34 34 34 33 32 31 29 28 27 25 24 23 22 22 22 21 20 18 17 17 17 17 18 19 20 22 23 25 26 28 28 29 30 30 31 31 32 32 33 33 34 36 37 38 39 40 41 41 41 41 40 38 37 37 37
27 27 26 26 26 26 26 27 27 27 28 28 29 29 30 31 31 32 33 33 34 34 33 32 31 31 31 32 32 32 32 32 32 31 31 30 29 27 26 25 24 22 22 21 20 20 20 20 19 18 18 17 17 17 18 19 20 21 22 24 26 28 29 30 30 31 32 33 34 34 35 35 35 36 36 37 37 36 36 36 35 35 36 37 38
26 26 26 25 25 25 24 25 25 25 26 27 27 27 28 29 30 31 32 32 32 32 32 32 31 30 30 30 30 29 29 29 29 30 29 29 28 26 26 25 23 22 21 21 20 19 19 19 20 20 21 20 20 20 20 21 21 21 21 21 22 23 25 27 28 29 30 31 32 33 34 35 35 35 35 36 36 36 36 36 37 37 38 39 39
26 26 26 26 26 26 25 25 25 25 26 26 26 27 28 29 30 31 31 31 32 31 31 31 31 30 29 28 27 27 27 26 26 26 26 26 26 25 24 23 22 21 21 20 19 18 18 18 18 19 20 21 21 22 22 22 22 23 24 24 24 24 25 26 27 28 29 30 30 32 33 34 35 36 37 37 37 38 38 38 38 37 37 36 36
26 26 26 26 27 27 27 27 27 27 27 27 27 28 28 29 29 30 30 31 31 31 30 30 30 30 29 28 27 26 26 25 24 24 24 24 24 23 22 21 21 20 19 19 18 17 17 16 16 16 17 18 19 20 21 22 22 22 23 23 24 25 26 27 27 28 28 29 29 30 31 32 33 33 34 34 35 35 34 34 33 33 33 33 33
26 26 26 27 27 27 28 28 28 28 29 29 29 29 29 29 30 30 30 30 31 31 30 30 30 29 29 29 28 27 26 25 24 24 23 23 22 21 20 19 19 18 17 17 17 17 17 16 16 16 16 16 16 18 19 20 21 21 21 21 22 22 23 24 24 25 25 26 26 27 27 28 28 29 29 30 30 30 30 30 29 29 30 30 31
27 27 27 27 27 27 28 28 29 29 29 30 30 30 30 30 30 30 30 30 30 30 30 30 30 30 29 29 29 28 27 26 26 25 24 23 22 21 20 19 19 18 17 16 16 16 16 17 17 17 17 17 17 17 18 19 20 20 20 20 20 21 21 22 23 23 24 24 25 25 26 26 27 27 28 28 28 28 28 28 28 28 29 29 30
28 28 28 28 28 28 28 28 28 28 29 29 30 30 30 30 30 30 30 30 30 30 30 29 29 29 29 29 29 29 28 27 27 26 25 25 24 23 23 22 21 19 18 18 17 17 17 17 17 17 17 17 17 17 18 18 18 19 19 19 20 20 20 21 21 22 23 23 24 24 25 25 25 26 26 26 26 26 27 27 28 29 30 31 33
29 29 29 29 29 28 28 28 28 28 28 28 28 28 29 29 29 29 29 29 29 29 28 28 28 28 28 28 29 29 29 28 27 27 26 25 25 24 24 24 23 22 22 21 21 20 20 20 19 19 19 19 18 18 18 18 19 19 19 19 20 20 21 21 21 22 22 22 23 23 24 24 24 25 25 26 27 27 28 29 30 31 32 32 33
30 29 29 29 29 29 29 29 28 28 27 27 27 26 26 27 27 27 27 27 27 27 27 27 26 26 26 26 27 27 27 28 28 27 27 26 25 25 24 24 24 23 23 23 23 23 23 23 22 22 22 22 21 21 21 21 21 21 21 21 21 21 22 22 23 23 23 23 24 24 24 25 25 26 26 27 27 28 29 29 29 30 30 30 30
30 30 30 29 29 29 29 29 28 28 27 26 26 25 25 25 25 25 25 25 25 25 25 25 25 24 24 24 24 24 25 25 26 26 26 26 25 25 24 23 23 23 23 22 22 22 22 22 23 23 23 23 23 23 23 23 22 22 22 22 22 22 22 22 23 23 23 23 23 24 24 24 25 25 25 26 26 26 27 27 27 27 27 27 27
31 30 30 29 29 29 29 28 28 28 27 26 26 25 24 24 23 23 22 22 22 22 22 22 22 23 22 22 22 22 22 22 23 23 23 23 24 23 23 22 22 22 22 22 22 22 22 21 21 21 21 21 21 21 21 22 22 21 21 21 21 21 21 21 22 22 22 22 22 22 22 22 22 22 22 22 23 23 23 23 23 23 23 23 23
31 31 30 29 29 29 28 28 28 27 27 26 25 24 23 23 22 21 21 20 20 20 20 20 20 20 20 20 20 20 20 20 20 20 20 21 21 21 21 21 21 21 21 21 21 21 21 21 20 20 20 19 19 19 19 19 19 19 19 19 19 19 19 19 19 19 19 19 19 19 19 19 19 19 19 19 19 19 19 19 20 20 20 20 20
31 30 30 29 29 29 28 28 28 27 26 25 25 24 23 22 21 20 19 19 18 18 18 18 17 18 18 18 18 18 18 18 18 18 18 18 18 18 19 19 19 18 18 18 19 19 20 20 20 19 19 19 18 18 18 18 18 17 17 17 17 17 17 17 17 17 17 17 17 17 17 17 17 17 17 17 17 18 18 18 18 18 19 19 19
30 30 29 29 28 28 28 28 27 27 26 25 24 24 23 22 21 20 19 18 17 17 16 16 16 16 16 16 16 16 16 16 16 16 16 16 16 16 17 17 17 17 17 17 17 17 17 18 18 18 18 18 18 18 18 18 17 17 17 17 17 17 16 16 16 16 16 16 16 17 17 17 17 17 17 17 17 18 18 18 18 18 18 18 18
30 29 28 28 28 27 27 27 27 26 26 25 25 24 23 23 22 20 19 18 17 16 15 15 14 14 14 14 14 14 14 14 14 14 14 14 14 15 15 15 16 16 16 16 15 15 15 16 16 17 17 17 17 17 17 17 16 17 17 17 17 17 17 17 17 17 17 17 17 17 17 17 17 18 18 18 18 18 18 18 18 18 18 18 18
Wind_Direction
261 262 261 260 260 260 260 260 260 261 262 263 264 265 267 268 269 270 270 271 272 272 273 274 274 275 275 275 275 276 276 277 277 277 277 276 276 276 276 275 275 276 276 275 274 273 272 271 272 272 273 273 273 272 271 271 271 272 273 274 274 274 274 273 274 276 278 278 279 277 274 272 273 274 275 275 274 273 273 273 270 267 263 260 259
261 261 260 260 260 260 261 261 260 261 261 262 262 263 264 265 266 267 268 268 269 270 271 271 271 272 272 272 273 274 274 275 276 276 276 276 277 276 276 276 276 276 276 275 275 274 273 271 271 271 271 271 270 269 269 269 270 271 272 272 272 271 271 272 273 275 276 277 278 277 276 274 273 273 273 274 273 272 271 270 268 265 262 259 257
256 257 258 258 258 259 259 259 259 259 259 259 259 260 260 261 261 263 264 264 265 266 267 267 268 268 269 270 270 271 273 274 275 276 277 278 278 278 278 277 277 276 276 276 276 275 274 272 272 272 271 270 269 268 268 268 269 270 271 271 270 269 270 272 274 275 276 276 276 276 276 275 273 271 271 271 272 272 271 270 267 263 260 258 256
250 251 252 253 254 256 256 257 257 257 257 257 257 258 258 259 259 260 261 262 262 263 264 266 267 267 268 269 270 271 272 273 275 276 278 279 279 279 279 279 279 278 278 277 277 277 275 274 274 273 271 269 268 267 268 269 270 271 271 270 269 269 270 272 273 274 275 275 275 275 276 276 274 271 269 269 270 270 271 270 267 264 259 257 256
248 249 250 250 252 254 257 258 259 258 258 259 260 260 260 261 261 262 262 263 263 263 265 266 268 270 270 271 271 272 273 275 276 276 278 279 280 281 281 281 280 279 279 278 278 278 276 275 274 272 270 268 268 268 268 270 272 273 273 272 271 270 270 271 273 273 273 273 273 274 275 274 273 271 269 268 268 267 268 268 268 265 260 258 256
251 252 254 254 255 259 263 265 265 264 264 264 265 265 265 266 266 266 267 267 267 268 270 271 272 273 273 274 274 275 276 276 277 278 279 280 281 282 282 282 281 280 279 278 277 277 275 274 273 271 269 268 268 268 269 271 272 273 274 273 272 271 269 270 273 273 272 271 272 273 273 273 272 271 268 267 266 265 266 267 267 265 263 261 258
258 261 263 263 264 265 268 270 271 272 273 273 273 271 270 269 270 270 271 271 272 272 273 273 273 273 274 274 275 276 277 277 278 279 280 281 282 282 282 282 281 280 279 277 276 275 273 272 270 269 268 268 269 270 271 272 272 273 273 274 273 271 271 272 273 273 271 271 271 271 271 271 270 269 268 265 263 264 265 267 268 268 266 263 260
267 270 272 273 272 271 270 272 275 278 280 280 279 278 275 274 273 273 274 274 274 274 274 273 272 271 272 273 274 276 276 277 278 280 281 282 282 283 283 282 282 281 279 278 276 274 272 270 269 268 268 269 270 271 271 272 272 272 273 274 274 273 274 274 273 272 270 270 270 270 269 268 268 268 268 267 265 266 267 268 269 268 266 264 261
272 272 275 279 280 279 277 276 278 281 281 281 280 279 278 277 275 274 275 275 275 276 275 274 273 271 271 272 273 275 276 277 278 279 280 281 281 282 282 282 281 281 280 278 275 274 273 271 270 269 269 270 270 270 270 270 271 272 273 274 274 275 275 275 273 272 270 270 269 268 266 266 266 266 266 267 267 268 267 266 266 265 264 262 259
277 276 276 279 280 281 280 279 279 280 280 278 278 277 277 277 275 274 274 274 274 274 274 274 273 273 272 272 273 274 275 276 277 277 278 278 279 279 279 279 279 279 278 277 275 273 272 272 271 271 270 270 270 270 270 270 271 272 272 273 274 275 275 274 273 271 270 269 268 267 265 264 265 265 266 267 267 267 266 265 265 264 262 259 257
277 278 278 278 278 278 278 278 278 279 278 277 276 276 276 276 275 273 272 271 271 271 272 272 272 272 272 272 272 273 274 274 274 273 273 274 274 275 276 276 276 276 276 276 275 274 272 271 271 271 271 271 270 271 271 271 271 271 271 272 273 274 274 273 271 270 269 267 266 264 263 264 264 265 266 266 266 266 266 266 265 263 260 257 255
270 271 272 274 273 273 274 275 276 276 277 276 275 275 275 275 275 274 272 271 270 270 270 270 270 271 271 272 272 272 272 272 271 270 270 270 270 270 271 272 273 273 273 273 274 274 273 272 271 270 271 271 271 271 271 271 271 271 271 271 272 272 272 271 270 268 266 265 264 262 262 264 264 264 264 265 266 266 266 265 264 263 260 256 254
266 265 265 265 267 269 270 272 273 273 274 275 276 276 275 275 275 274 273 272 271 270 269 269 269 270 270 270 271 271 272 272 271 270 269 268 268 268 268 268 268 269 270 270 271 272 272 273 272 271 271 271 272 271 271 271 271 271 271 270 271 272 271 270 268 266 263 262 262 262 263 264 264 264 264 264 264 264 264 264 263 262 260 257 254
267 266 265 265 266 267 269 271 272 272 272 273 274 274 274 273 272 272 272 271 270 269 269 268 268 268 268 269 269 270 271 271 271 271 270 270 270 269 268 267 267 266 267 267 268 268 269 270 271 271 271 270 270 271 271 271 271 271 271 270 271 272 270 268 266 263 260 260 260 261 263 263 263 263 263 263 264 264 264 264 263 261 259 257 254
264 265 265 266 267 268 269 270 271 271 271 271 272 272 270 269 269 268 268 269 269 269 268 268 268 267 268 268 268 268 268 269 269 270 271 271 271 271 270 270 269 268 267 266 266 266 266 267 268 269 269 269 268 268 269 270 270 271 271 271 271 271 269 267 264 261 259 258 259 260 261 261 260 261 262 262 263 264 264 263 261 259 257 255 254
263 263 263 264 265 266 267 268 269 269 269 269 269 269 269 269 269 268 268 267 268 268 269 269 270 269 270 270 271 270 268 268 269 270 270 271 271 271 270 270 270 270 269 269 268 266 265 265 265 266 266 267 267 266 266 267 268 269 269 270 270 270 269 266 262 259 258 257 258 259 259 258 258 259 261 262 262 262 261 260 259 257 256 255 255
265 264 264 264 264 265 266 266 267 267 268 268 269 269 270 270 271 271 271 269 269 270 270 271 271 272 272 273 274 273 271 270 272 272 272 273 273 272 271 271 270 269 269 269 269 268 267 266 265 265 264 264 264 264 264 264 265 266 267 268 268 268 268 266 261 258 257 257 257 258 258 257 257 259 260 260 260 260 259 258 258 257 256 255 253
268 267 266 266 265 265 265 266 266 267 268 269 270 270 271 272 273 274 274 273 272 273 273 273 273 273 274 275 275 275 274 273 274 275 274 274 274 274 274 273 272 270 270 269 269 269 269 267 267 266 265 264 263 263 262 262 263 264 264 266 266 266 267 266 262 258 256 256 257 257 256 256 257 258 259 259 258 258 257 256 257 256 254 252 249
267 268 269 269 269 269 269 270 270 271 271 272 272 273 274 276 277 278 278 277 276 276 276 276 275 275 277 277 277 277 276 274 275 277 276 275 275 276 276 275 275 274 273 272 271 270 270 269 269 268 266 265 264 263 262 261 262 262 263 264 264 264 265 265 262 258 255 254 255 255 254 254 255 256 257 257 256 256 255 254 254 253 251 249 245
264 268 271 272 273 273 274 275 276 277 277 277 277 278 278 278 279 280 280 280 280 279 279 279 278 278 279 280 279 280 279 278 277 279 279 277 277 277 277 276 277 276 276 275 274 272 272 271 271 271 269 267 266 265 263 262 261 262 262 263 263 263 263 263 260 257 255 254 254 253 252 252 253 254 255 254 254 254 254 254 253 251 248 245 243
265 267 270 273 275 276 277 277 278 279 279 279 279 279 279 279 279 280 280 280 280 280 279 280 280 280 280 281 281 281 281 281 280 280 281 280 280 279 279 278 278 277 276 276 276 276 275 275 274 273 272 270 267 266 265 263 262 261 261 262 263 262 261 261 259 256 254 253 253 252 251 251 251 253 253 253 252 252 251 252 250 247 243 242 242
269 270 272 274 276 277 278 278 278 278 278 279 279 279 280 280 280 280 280 280 280 280 279 279 279 280 280 280 280 280 280 280 280 280 280 280 280 280 280 279 279 278 277 275 275 276 277 277 276 275 273 271 268 266 265 264 263 262 261 262 263 262 260 259 257 255 252 252 252 252 251 251 251 252 253 252 253 252 251 250 248 244 241 241 243
274 274 275 276 277 278 278 277 277 277 277 277 278 278 278 279 279 279 279 279 279 279 279 279 279 279 279 279 279 279 279 278 278 278 278 278 278 278 278 279 278 278 277 276 275 275 275 275 276 276 275 274 270 267 264 264 263 262 262 262 262 262 260 257 256 254 252 252 253 252 251 251 252 252 252 252 252 251 251 251 248 244 243 244 245
278 278 278 278 278 277 276 275 275 275 275 276 276 276 276 276 276 276 277 277 278 278 279 280 280 280 280 279 279 279 279 279 279 279 278 278 277 277 277 277 276 276 276 276 276 275 274 274 274 275 275 275 273 269 265 263 262 262 261 261 262 261 260 257 255 254 253 253 253 253 253 254 254 255 255 255 254 252 253 252 247 243 243 244 244
278 277 276 276 275 274 274 273 274 274 274 274 274 274 274 273 273 273 274 274 275 276 277 278 279 280 280 280 279 279 280 280 280 280 280 280 280 278 277 276 275 275 275 275 275 274 274 274 274 274 274 275 275 273 269 265 263 262 261 261 261 260 259 258 256 255 255 255 255 256 256 256 257 258 259 258 256 254 252 250 245 243 244 244 244
276 274 273 273 272 272 272 273 273 273 273 273 273 272 272 272 272 272 272 272 273 274 275 276 277 278 280 280 281 281 282 282 282 282 282 281 281 280 278 276 275 274 274 274 274 273 273 273 273 274 274 274 274 274 272 269 266 263 262 261 261 260 258 256 256 256 257 256 256 256 257 255 254 254 256 257 255 252 249 246 246 247 247 245 245
275 273 272 272 272 272 272 272 271 271 271 271 271 271 271 272 272 272 272 272 273 274 275 277 278 279 281 282 283 284 284 284 284 284 284 283 282 281 280 277 274 273 273 273 272 271 271 271 272 272 273 273 273 272 272 270 268 266 264 263 263 262 258 255 255 256 256 256 255 255 255 254 251 250 253 255 255 251 248 247 248 250 249 247 245
279 277 275 273 273 272 272 272 272 272 271 271 271 271 271 272 273 274 274 275 275 276 277 278 280 282 283 284 285 285 285 285 285 285 285 285 283 282 282 279 276 273 272 271 270 270 270 269 270 270 270 271 270 269 269 269 268 267 266 264 264 264 261 258 256 256 256 255 254 252 251 250 249 248 249 250 250 248 247 247 248 248 248 246 242
279 279 278 276 275 274 275 275 275 274 273 273 272 272 272 272 273 274 275 276 277 278 279 280 281 283 284 286 287 287 287 286 286 286 285 285 283 282 281 280 276 273 272 271 269 268 268 268 268 268 268 268 268 267 267 268 268 268 268 266 264 264 262 260 258 257 256 255 254 252 251 250 249 247 245 244 244 244 244 244 244 244 243 240 236
275 277 277 277 277 277 278 278 278 278 277 276 275 275 275 275 275 275 276 278 279 279 280 282 283 284 286 287 289 290 290 290 289 288 287 286 285 283 282 281 278 276 274 271 267 265 265 265 266 267 267 266 266 266 267 267 268 268 269 268 266 264 261 259 258 256 254 253 253 253 252 251 250 250 247 244 243 243 241 240 238 237 235 233 232
274 275 276 277 278 278 278 278 278 278 278 278 276 276 276 277 278 279 279 280 281 281 282 283 285 286 287 289 290 291 292 292 292 291 291 290 289 287 284 283 281 279 276 272 267 262 261 263 264 266 266 265 264 265 265 267 267 267 267 266 265 263 261 259 257 255 252 250 250 249 248 247 247 247 246 245 244 242 240 236 234 231 231 231 233
275 275 276 276 277 277 277 277 277 277 277 277 276 276 276 277 278 279 281 282 282 283 284 285 285 286 287 289 290 290 291 291 291 291 291 291 289 287 284 281 279 277 276 274 270 266 264 264 265 266 266 265 264 264 265 266 267 267 267 266 264 263 260 257 254 253 251 248 246 244 244 243 243 242 241 240 237 235 234 232 231 231 232 233 235
277 277 276 276 275 276 276 276 275 275 275 275 275 276 276 277 277 278 279 281 283 283 284 284 284 285 286 286 287 288 289 290 289 288 288 288 287 285 283 280 279 277 277 276 276 274 271 270 269 269 268 266 265 265 266 266 267 267 266 266 265 263 259 254 250 249 249 246 243 241 239 238 238 236 234 232 231 231 230 230 231 233 234 235 237
277 278 277 276 275 274 273 273 273 273 274 274 275 275 276 277 278 278 278 279 281 282 283 284 284 285 285 285 286 287 288 288 287 285 285 285 285 285 283 282 282 281 279 279 280 280 279 276 275 274 272 270 268 267 267 267 266 264 263 262 261 259 256 252 247 244 242 240 238 236 233 232 231 230 229 228 228 228 228 229 230 232 234 237 239
273 273 274 274 273 272 270 270 270 270 271 273 274 275 276 276 278 279 280 281 282 282 282 284 285 286 287 287 287 288 289 288 286 285 285 285 285 286 286 285 285 285 284 282 282 282 282 282 282 281 278 275 272 269 267 266 265 262 260 258 255 252 250 248 245 242 239 235 232 230 228 228 227 227 227 226 227 227 229 231 233 236 239 242 244
269 269 268 269 269 269 270 270 270 271 271 272 273 275 276 277 277 279 280 281 283 283 283 283 284 285 286 287 288 289 290 289 288 288 288 288 288 288 289 289 288 288 287 285 285 284 283 284 284 285 285 284 281 278 275 271 267 263 260 257 254 250 248 246 245 243 242 240 238 236 234 233 232 232 232 232 232 234 236 237 239 242 244 247 249
274 273 272 270 269 269 270 271 273 274 274 275 275 276 277 278 279 280 281 281 282 283 284 283 284 284 285 287 288 288 288 288 289 290 290 289 289 289 289 289 289 289 288 287 287 286 286 284 283 282 283 283 283 282 281 278 275 272 267 262 258 255 253 250 248 246 245 244 244 245 245 244 243 241 240 240 240 240 241 242 244 246 249 251 253
282 281 280 279 277 275 275 274 275 275 275 276 276 277 279 280 281 282 282 282 282 282 282 282 282 282 283 283 284 284 285 286 287 288 289 289 289 289 288 288 287 287 286 286 284 284 284 284 282 279 278 277 276 275 274 272 270 268 266 262 259 257 256 254 252 250 249 248 248 248 248 248 246 245 243 243 243 244 245 246 247 249 251 252 254
289 288 287 286 285 283 282 281 280 280 279 278 278 278 278 279 280 281 281 281 281 281 281 280 280 279 279 279 279 280 282 283 284 285 286 286 287 287 286 285 284 283 282 281 280 279 279 280 280 280 278 277 276 275 273 271 267 263 259 256 254 252 251 250 248 247 246 246 245 245 245 244 244 243 243 243 244 245 246 247 248 249 250 252 254
292 292 291 290 290 289 288 287 286 285 284 283 282 281 280 280 279 280 280 280 281 281 281 281 280 279 277 277 277 277 278 278 278 279 281 282 284 284 283 282 281 280 279 278 277 275 274 274 276 277 277 277 277 275 274 272 269 265 261 258 255 254 252 251 249 247 246 245 245 245 244 244 243 244 244 244 245 246 247 248 248 249 250 251 253
294 293 293 292 292 291 291 290 289 288 287 286 285 284 283 283 282 281 281 280 281 281 281 281 280 279 277 276 275 274 273 272 272 272 273 276 278 280 280 279 278 278 278 277 277 276 274 273 273 273 274 275 275 275 275 273 271 268 265 263 260 258 257 256 255 254 253 252 251 250 249 249 248 247 247 248 248 248 248 248 248 248 248 249 251
293 292 292 292 292 292 291 291 290 290 290 288 287 286 286 285 285 284 283 282 281 280 280 280 280 278 277 276 275 274 272 270 269 269 269 270 272 274 275 276 275 275 275 275 275 276 276 275 274 273 273 273 272 272 273 273 271 270 268 265 262 260 257 255 253 252 251 251 251 250 250 249 248 248 247 247 246 245 245 245 245 247 249 251 254
293 292 291 290 290 290 290 290 290 290 289 289 289 289 288 288 287 286 285 284 283 281 280 280 279 278 277 276 276 275 274 272 271 270 269 270 270 270 271 272 272 273 273 273 274 274 273 274 274 273 273 273 272 271 270 270 270 269 268 267 265 263 261 259 257 255 254 253 251 251 250 249 248 247 246 246 246 246 247 249 252 254 257 259 261
294 293 291 290 289 288 288 289 289 289 289 289 289 289 289 289 289 288 286 285 284 283 282 280 279 278 277 276 275 275 275 275 275 274 273 272 271 271 270 270 270 270 271 272 272 272 272 271 271 271 271 271 270 270 269 269 269 268 267 266 265 264 264 264 263 262 260 259 258 257 257 256 256 256 256 257 258 259 260 261 262 262 263 263 264
293 292 291 290 289 288 287 287 288 288 288 289 290 290 291 291 290 290 288 286 285 284 282 281 280 279 277 276 275 275 275 276 277 277 277 276 275 273 272 271 270 270 270 270 270 270 271 271 270 270 270 270 270 270 270 270 270 269 269 268 267 266 266 266 266 266 265 264 263 263 263 263 263 263 263 263 263 263 263 263 262 262 262 262 262
291 290 289 288 288 287 286 285 285 286 287 288 290 292 293 293 292 292 291 289 287 285 283 281 280 279 278 277 276 276 276 276 276 277 278 279 278 277 275 273 271 271 270 271 270 270 270 270 270 270 270 270 270 270 270 271 271 271 271 271 270 270 269 268 268 267 267 266 265 264 263 262 261 260 260 259 259 259 259 259 259 259 260 260 260
290 288 287 286 285 285 284 283 283 283 284 286 288 289 291 292 293 293 292 291 290 287 284 282 280 279 278 277 276 276 276 276 276 277 278 279 279 279 278 277 275 273 271 271 271 271 272 272 272 272 272 271 271 271 271 271 271 271 271 271 271 270 269 268 267 267 266 266 264 263 261 259 258 257 256 256 256 256 256 257 257 258 258 259 260
288 287 286 285 284 283 282 282 281 281 281 282 284 286 288 290 291 292 292 292 291 289 286 284 282 280 279 278 277 276 275 275 277 278 278 278 279 280 280 280 279 277 276 274 273 272 272 272 272 272 272 272 272 272 271 271 270 270 269 269 268 268 267 266 265 265 264 263 262 260 259 258 257 256 256 256 256 257 257 258 259 260 261 262 264
286 286 285 284 283 282 281 280 280 279 279 280 281 283 285 287 288 290 291 291 291 290 288 286 284 282 280 279 278 278 277 277 278 277 277 278 279 280 281 281 281 281 280 278 276 274 273 272 272 272 271 270 270 270 270 269 269 268 267 266 265 264 264 263 262 262 261 260 260 260 260 259 259 259 259 259 260 260 261 261 262 263 264 265 266
284 284 283 283 282 281 280 279 278 277 277 277 278 280 281 283 285 286 288 288 289 290 289 288 286 285 282 281 280 280 279 280 279 278 277 278 278 279 280 281 282 283 282 280 280 279 277 274 272 271 270 269 269 269 268 268 267 266 266 264 264 263 262 261 261 261 260 261 261 261 261 261 260 260 260 261 261 261 262 262 263 264 264 265 266
283 283 282 282 281 280 279 278 277 276 275 275 276 277 278 280 281 282 284 285 286 288 288 288 288 287 285 284 283 282 282 281 280 279 279 279 279 280 280 281 281 282 282 283 283 282 279 277 275 273 271 271 271 270 270 269 267 266 265 264 263 262 261 260 259 260 260 261 261 261 261 262 262 262 262 263 263 263 263 264 264 265 265 266 267
Height
3042 3042 3042 3042 3042 3041 3041 3041 3041 3040 3040 3040 3040 3040 3040 3040 3040 3039 3039 3040 3040 3039 3039 3039 3039 3038 3038 3037 3037 3037 3036 3036 3036 3035 3034 3034 3034 3033 3033 3033 3032 3032 3032 3032 3032 3032 3031 3031 3031 3031 3031 3029 3029 3028 3027 3027 3026 3025 3025 3024 3024 3023 3023 3022 3019 3017 3019 3020 3020 3021 3023 3022 3020 3019 3017 3016 3016 3016 3016 3016 3016 3015 3016 3016 3016
3038 3038 3038 3038 3038 3038 3037 3037 3037 3036 3036 3036 3036 3036 3036 3036 3035 3034 3034 3035 3034 3034 3034 3034 3033 3033 3032 3032 3032 3031 3031 3031 3030 3029 3028 3028 3028 3027 3027 3027 3026 3026 3026 3025 3026 3026 3025 3024 3024 3025 3025 3023 3023 3022 3021 3021 3020 3020 3019 3018 3017 3017 3017 3016 3015 3013 3013 3015 3014 3014 3016 3017 3016 3015 3013 3011 3011 3011 3011 3011 3011 3011 3011 3011 3012
3033 3033 3034 3034 3034 3033 3033 3033 3033 3033 3033 3032 3032 3032 3031 3031 3030 3030 3030 3030 3030 3029 3029 3029 3028 3028 3027 3027 3027 3027 3026 3026 3025 3024 3023 3023 3022 3022 3022 3021 3020 3020 3019 3019 3020 3020 3019 3018 3018 3019 3019 3017 3017 3017 3016 3016 3015 3014 3014 3013 3012 3012 3012 3011 3010 3008 3008 3009 3009 3008 3009 3010 3011 3010 3009 3007 3006 3005 3006 3006 3006 3006 3007 3007 3008
3028 3029 3029 3029 3029 3029 3029 3029 3029 3028 3028 3028 3027 3027 3027 3026 3026 3025 3025 3025 3025 3025 3024 3024 3023 3023 3023 3022 3022 3022 3021 3021 3020 3020 3019 3018 3017 3017 3016 3015 3015 3014 3013 3013 3013 3013 3012 3012 3012 3013 3012 3011 3011 3011 3011 3011 3010 3009 3009 3008 3007 3007 3007 3006 3005 3004 3003 3002 3003 3003 3003 3003 3004 3005 3004 3002 3001 3001 3001 3001 3001 3002 3002 3002 3003
3023 3023 3024 3024 3024 3025 3025 3025 3024 3024 3023 3023 3023 3023 3022 3022 3021 3021 3020 3020 3020 3020 3020 3020 3019 3018 3018 3018 3017 3017 3016 3016 3015 3015 3014 3013 3012 3012 3011 3010 3009 3009 3008 3008 3007 3007 3006 3006 3006 3007 3006 3005 3005 3006 3006 3006 3005 3004 3003 3003 3003 3002 3002 3001 3000 2999 2998 2997 2997 2997 2997 2997 2998 2999 2999 2997 2997 2996 2996 2996 2996 2996 2997 2998 2999
3018 3018 3019 3019 3019 3020 3020 3019 3019 3019 3019 3019 3019 3018 3018 3017 3017 3016 3015 3015 3015 3015 3015 3015 3015 3014 3013 3013 3012 3012 3011 3011 3010 3009 3009 3008 3007 3006 3006 3005 3004 3003 3003 3002 3002 3001 3001 3000 3001 3001 3000 2999 3000 3000 3001 3000 3000 2999 2998 2998 2998 2997 2996 2996 2995 2994 2993 2992 2992 2991 2991 2991 2991 2992 2993 2993 2992 2991 2991 2991 2991 2991 2992 2993 2994
3012 3012 3013 3013 3014 3014 3013 3013 3013 3013 3013 3013 3013 3013 3012 3012 3011 3011 3010 3009 3009 3010 3010 3010 3009 3009 3008 3008 3007 3006 3006 3005 3004 3004 3003 3002 3002 3001 3000 2999 2998 2998 2997 2997 2996 2995 2995 2995 2995 2995 2994 2994 2994 2995 2995 2994 2994 2993 2993 2993 2992 2991 2990 2990 2989 2988 2987 2987 2986 2986 2985 2985 2985 2986 2987 2988 2987 2986 2986 2986 2986 2987 2987 2987 2988
3007 3006 3006 3006 3007 3007 3007 3007 3007 3007 3006 3006 3006 3006 3006 3005 3005 3004 3004 3003 3003 3003 3003 3003 3003 3002 3002 3001 3001 3000 2999 2999 2999 2998 2997 2996 2995 2994 2993 2992 2992 2991 2991 2991 2990 2989 2989 2989 2989 2988 2988 2988 2988 2988 2988 2988 2987 2986 2987 2986 2986 2985 2984 2984 2983 2982 2981 2981 2980 2980 2980 2980 2980 2980 2981 2981 2981 2982 2982 2982 2981 2982 2982 2982 2982
3001 3000 3000 3000 3000 3000 3001 3000 3000 3000 3000 2999 2999 2999 2999 2999 2998 2998 2997 2997 2997 2997 2996 2995 2995 2995 2995 2995 2994 2994 2993 2993 2993 2992 2991 2990 2989 2987 2987 2986 2984 2984 2983 2983 2983 2983 2982 2982 2982 2982 2982 2982 2982 2982 2982 2981 2980 2980 2980 2980 2979 2978 2978 2977 2976 2975 2975 2974 2974 2975 2974 2973 2974 2975 2975 2976 2976 2977 2978 2977 2976 2977 2977 2977 2976
2994 2994 2993 2993 2994 2994 2994 2994 2993 2993 2992 2992 2992 2992 2992 2991 2991 2991 2991 2990 2990 2989 2989 2988 2988 2987 2987 2987 2988 2987 2987 2988 2988 2986 2985 2983 2982 2981 2980 2979 2978 2977 2976 2976 2975 2976 2975 2975 2975 2975 2975 2975 2975 2975 2975 2975 2974 2974 2974 2973 2972 2972 2971 2970 2969 2969 2968 2968 2968 2969 2968 2967 2969 2969 2970 2971 2971 2971 2971 2971 2971 2971 2971 2970 2970
2987 2986 2986 2986 2987 2988 2988 2987 2986 2986 2985 2985 2985 2985 2984 2984 2984 2984 2983 2983 2982 2982 2982 2982 2981 2980 2980 2980 2980 2980 2981 2981 2981 2979 2978 2977 2975 2973 2972 2972 2971 2970 2969 2968 2968 2968 2968 2968 2968 2968 2968 2968 2968 2968 2968 2968 2967 2967 2967 2966 2965 2965 2964 2963 2962 2962 2961 2961 2962 2962 2961 2961 2963 2964 2964 2965 2965 2965 2965 2964 2965 2965 2964 2964 2964
2981 2980 2979 2980 2980 2981 2981 2980 2980 2979 2979 2978 2978 2977 2976 2976 2977 2976 2976 2975 2975 2975 2975 2974 2974 2974 2972 2972 2972 2972 2973 2974 2973 2971 2970 2969 2968 2965 2964 2964 2963 2963 2962 2961 2960 2960 2960 2960 2960 2961 2961 2961 2961 2961 2961 2961 2960 2960 2960 2959 2958 2957 2957 2956 2956 2955 2955 2954 2955 2955 2955 2956 2958 2958 2959 2960 2959 2958 2958 2958 2958 2958 2958 2958 2958
2974 2973 2973 2973 2973 2974 2974 2973 2973 2972 2971 2971 2970 2969 2969 2969 2969 2969 2968 2968 2967 2967 2967 2967 2966 2966 2965 2964 2964 2964 2965 2966 2965 2963 2962 2961 2959 2957 2956 2956 2955 2955 2955 2954 2954 2953 2953 2953 2952 2953 2954 2954 2953 2953 2953 2953 2953 2953 2952 2951 2950 2950 2950 2949 2949 2949 2948 2948 2947 2948 2949 2951 2951 2952 2953 2954 2953 2952 2952 2952 2952 2952 2951 2952 2953
2966 2966 2966 2966 2965 2965 2965 2965 2965 2964 2964 2963 2963 2962 2961 2961 2962 2961 2960 2960 2960 2959 2959 2959 2959 2958 2957 2956 2955 2956 2957 2958 2956 2954 2953 2953 2951 2949 2948 2948 2947 2947 2947 2947 2946 2946 2946 2945 2944 2945 2946 2946 2946 2946 2946 2945 2945 2945 2944 2943 2942 2942 2942 2942 2942 2942 2942 2941 2940 2942 2944 2945 2945 2946 2947 2946 2945 2945 2945 2945 2946 2946 2945 2946 2947
2959 2959 2958 2958 2958 2957 2957 2957 2956 2956 2955 2955 2955 2954 2954 2953 2954 2953 2952 2952 2952 2951 2951 2951 2950 2950 2949 2948 2947 2947 2949 2949 2947 2945 2945 2944 2942 2941 2940 2940 2939 2939 2939 2939 2939 2939 2939 2938 2937 2937 2938 2938 2939 2939 2938 2938 2937 2936 2935 2935 2935 2935 2934 2934 2935 2935 2935 2934 2934 2936 2938 2938 2938 2939 2939 2939 2938 2939 2939 2939 2939 2939 2939 2939 2939
2952 2952 2951 2951 2950 2950 2949 2949 2949 2948 2948 2947 2947 2946 2946 2946 2946 2945 2944 2945 2944 2943 2943 2942 2942 2942 2941 2940 2939 2939 2941 2941 2938 2937 2937 2935 2933 2932 2932 2931 2931 2930 2931 2932 2931 2930 2931 2930 2929 2929 2929 2930 2931 2931 2931 2930 2929 2927 2927 2927 2927 2927 2927 2927 2928 2927 2927 2928 2928 2929 2931 2931 2932 2932 2932 2932 2932 2932 2932 2932 2932 2932 2932 2932 2933
2945 2945 2944 2944 2943 2943 2942 2942 2942 2941 2940 2940 2940 2939 2939 2938 2938 2937 2936 2937 2937 2936 2935 2935 2934 2934 2933 2932 2931 2930 2932 2933 2930 2928 2928 2927 2925 2924 2923 2922 2922 2922 2922 2923 2922 2922 2922 2922 2921 2920 2921 2922 2923 2922 2922 2921 2920 2919 2919 2919 2919 2918 2919 2921 2920 2920 2920 2921 2921 2923 2923 2924 2925 2925 2925 2925 2925 2925 2925 2924 2924 2925 2925 2925 2926
2938 2938 2937 2937 2936 2936 2935 2935 2935 2935 2934 2933 2933 2932 2932 2932 2931 2930 2929 2929 2929 2929 2927 2927 2927 2927 2925 2925 2924 2922 2923 2925 2923 2920 2921 2919 2916 2915 2915 2913 2912 2913 2913 2913 2913 2912 2913 2914 2913 2912 2912 2913 2914 2913 2912 2912 2911 2911 2911 2911 2910 2910 2912 2913 2913 2913 2913 2913 2914 2915 2916 2917 2917 2917 2918 2918 2918 2918 2917 2917 2918 2918 2918 2918 2920
2932 2931 2931 2930 2930 2929 2929 2928 2928 2928 2928 2927 2926 2926 2925 2925 2924 2924 2922 2922 2922 2921 2920 2919 2920 2920 2918 2917 2916 2915 2914 2916 2915 2912 2912 2912 2908 2907 2906 2904 2904 2904 2904 2903 2904 2903 2903 2904 2904 2903 2903 2904 2904 2903 2903 2902 2901 2902 2903 2901 2901 2902 2905 2906 2905 2905 2906 2906 2906 2907 2908 2909 2909 2909 2910 2910 2909 2909 2909 2910 2911 2911 2911 2912 2914
2926 2926 2925 2925 2924 2924 2923 2922 2922 2921 2921 2920 2919 2919 2918 2918 2917 2916 2915 2914 2914 2914 2913 2912 2912 2912 2911 2910 2909 2908 2905 2906 2907 2904 2903 2903 2901 2898 2898 2896 2896 2896 2895 2894 2894 2895 2895 2895 2895 2894 2894 2894 2894 2893 2893 2893 2892 2893 2893 2892 2892 2895 2898 2897 2897 2898 2898 2898 2899 2899 2899 2900 2901 2901 2901 2901 2901 2901 2902 2902 2903 2904 2905 2905 2906
2921 2920 2920 2919 2919 2918 2918 2917 2916 2915 2914 2913 2912 2912 2911 2911 2910 2909 2908 2907 2907 2907 2906 2905 2904 2905 2905 2903 2902 2901 2898 2897 2898 2897 2895 2894 2892 2890 2889 2889 2888 2887 2886 2886 2886 2886 2886 2886 2886 2885 2884 2884 2884 2883 2883 2883 2883 2883 2883 2883 2885 2888 2888 2888 2889 2890 2889 2889 2890 2890 2891 2892 2892 2892 2892 2892 2892 2893 2894 2894 2896 2897 2897 2898 2899
2915 2914 2913 2913 2912 2912 2912 2911 2910 2909 2908 2907 2906 2905 2904 2903 2902 2901 2900 2899 2899 2899 2898 2897 2896 2897 2897 2896 2894 2893 2891 2889 2890 2889 2887 2885 2884 2881 2880 2880 2880 2878 2877 2878 2878 2878 2878 2877 2877 2876 2875 2874 2874 2874 2873 2873 2873 2873 2874 2876 2877 2878 2878 2879 2880 2880 2880 2880 2880 2881 2882 2883 2883 2883 2883 2884 2885 2885 2886 2887 2888 2889 2889 2891 2893
2908 2907 2907 2906 2906 2905 2905 2904 2903 2903 2902 2901 2900 2899 2898 2897 2895 2894 2893 2892 2891 2891 2890 2889 2888 2888 2889 2888 2885 2884 2882 2881 2881 2880 2879 2877 2875 2873 2872 2871 2871 2869 2868 2869 2870 2870 2869 2869 2868 2868 2866 2865 2865 2865 2864 2864 2863 2864 2865 2867 2867 2868 2869 2870 2870 2871 2871 2871 2872 2872 2873 2874 2875 2875 2875 2876 2877 2877 2878 2880 2881 2882 2883 2885 2886
2901 2901 2900 2900 2899 2898 2898 2897 2896 2896 2895 2894 2893 2892 2891 2890 2889 2887 2886 2885 2884 2883 2882 2881 2880 2880 2880 2879 2878 2875 2874 2873 2872 2871 2870 2869 2867 2866 2864 2863 2862 2861 2860 2861 2862 2861 2860 2860 2860 2859 2858 2857 2857 2856 2856 2855 2855 2855 2856 2857 2857 2859 2859 2860 2862 2862 2862 2863 2863 2864 2865 2866 2867 2866 2867 2869 2870 2871 2872 2873 2874 2875 2877 2878 2879
2894 2894 2894 2893 2892 2892 2891 2890 2889 2889 2888 2887 2886 2885 2884 2883 2882 2881 2880 2879 2877 2876 2875 2873 2873 2872 2871 2871 2870 2868 2866 2865 2864 2863 2861 2860 2859 2858 2856 2855 2854 2853 2852 2852 2853 2852 2852 2852 2851 2850 2850 2849 2849 2848 2847 2847 2847 2847 2847 2848 2848 2849 2850 2851 2853 2854 2854 2855 2856 2856 2857 2859 2859 2859 2860 2862 2863 2863 2864 2865 2866 2868 2870 2871 2873
2888 2887 2887 2886 2886 2885 2885 2884 2883 2882 2881 2880 2879 2878 2877 2876 2875 2874 2873 2872 2871 2869 2868 2867 2865 2864 2863 2862 2861 2860 2858 2857 2856 2855 2853 2852 2851 2850 2849 2848 2847 2845 2844 2844 2844 2844 2843 2843 2843 2842 2842 2841 2841 2840 2839 2839 2839 2839 2839 2839 2840 2841 2842 2843 2844 2845 2846 2847 2848 2848 2849 2850 2851 2851 2852 2853 2854 2856 2857 2858 2860 2861 2863 2865 2867
2881 2880 2880 2879 2879 2878 2878 2878 2877 2876 2875 2873 2872 2871 2870 2869 2868 2867 2866 2865 2864 2863 2861 2860 2859 2858 2857 2855 2854 2853 2851 2850 2848 2847 2846 2844 2843 2842 2841 2840 2839 2838 2837 2836 2836 2836 2835 2835 2835 2835 2834 2833 2833 2832 2831 2831 2831 2830 2831 2832 2832 2833 2833 2834 2835 2837 2838 2838 2840 2840 2841 2841 2842 2843 2844 2846 2847 2850 2851 2853 2854 2855 2856 2858 2859
2874 2874 2873 2872 2872 2871 2871 2871 2870 2869 2868 2867 2866 2865 2864 2863 2862 2860 2859 2858 2857 2856 2855 2854 2853 2851 2850 2849 2847 2846 2845 2843 2841 2840 2838 2837 2836 2834 2833 2832 2831 2830 2829 2828 2828 2827 2827 2827 2827 2826 2826 2825 2825 2824 2824 2823 2823 2823 2823 2824 2825 2825 2826 2826 2827 2828 2829 2830 2831 2832 2832 2833 2833 2835 2837 2838 2840 2842 2845 2846 2847 2848 2849 2851 2852
2868 2867 2866 2866 2865 2865 2864 2864 2863 2863 2862 2861 2860 2858 2857 2857 2856 2855 2854 2852 2851 2850 2849 2847 2846 2845 2844 2842 2840 2839 2838 2836 2834 2833 2831 2829 2828 2826 2825 2824 2822 2822 2821 2820 2819 2819 2819 2818 2818 2818 2818 2817 2817 2816 2816 2816 2815 2816 2816 2816 2817 2818 2818 2819 2820 2821 2822 2823 2823 2824 2825 2826 2827 2827 2829 2831 2833 2835 2837 2838 2839 2841 2842 2844 2846
2861 2860 2860 2859 2858 2858 2857 2857 2856 2856 2855 2854 2854 2853 2851 2850 2850 2849 2848 2847 2845 2844 2843 2841 2840 2839 2837 2836 2834 2832 2830 2829 2827 2826 2824 2822 2820 2819 2817 2816 2815 2814 2813 2812 2811 2810 2810 2810 2810 2809 2809 2809 2809 2809 2808 2808 2808 2809 2809 2809 2810 2810 2811 2812 2813 2814 2814 2815 2816 2817 2819 2820 2821 2822 2823 2825 2827 2829 2831 2832 2833 2835 2837 2839 2840
2854 2853 2853 2852 2852 2851 2851 2850 2850 2849 2848 2847 2847 2847 2846 2844 2843 2842 2841 2840 2839 2838 2837 2835 2834 2833 2831 2829 2828 2826 2824 2823 2821 2819 2817 2816 2814 2812 2810 2809 2808 2807 2806 2805 2803 2801 2801 2801 2801 2801 2801 2801 2801 2801 2801 2801 2802 2802 2802 2802 2803 2803 2804 2804 2805 2806 2807 2808 2809 2810 2812 2813 2815 2816 2818 2819 2821 2823 2825 2827 2828 2830 2832 2833 2834
2848 2847 2847 2846 2846 2845 2844 2844 2843 2842 2842 2841 2840 2840 2839 2839 2837 2836 2834 2833 2833 2832 2831 2829 2828 2827 2825 2824 2823 2821 2820 2818 2816 2814 2812 2810 2809 2807 2805 2803 2803 2801 2800 2799 2797 2795 2793 2793 2793 2794 2794 2794 2793 2793 2794 2794 2795 2795 2795 2795 2796 2796 2796 2797 2797 2799 2800 2801 2802 2803 2805 2807 2808 2810 2812 2813 2815 2817 2818 2820 2822 2824 2826 2827 2829
2842 2841 2841 2841 2840 2839 2838 2838 2837 2836 2835 2835 2834 2833 2833 2832 2832 2831 2829 2828 2826 2825 2824 2823 2822 2821 2820 2819 2817 2816 2815 2814 2812 2810 2808 2806 2804 2802 2800 2799 2797 2796 2795 2793 2792 2790 2788 2787 2787 2787 2787 2787 2787 2787 2787 2787 2788 2788 2789 2789 2789 2790 2790 2790 2791 2792 2793 2795 2797 2798 2800 2801 2803 2805 2807 2808 2810 2812 2813 2814 2815 2817 2819 2821 2823
2837 2836 2836 2835 2835 2834 2833 2832 2831 2830 2830 2829 2828 2827 2826 2826 2825 2825 2824 2823 2821 2820 2818 2817 2816 2815 2814 2813 2812 2811 2810 2809 2807 2806 2804 2801 2800 2798 2796 2794 2792 2791 2790 2788 2787 2786 2785 2783 2783 2782 2782 2781 2781 2781 2781 2782 2782 2782 2783 2783 2784 2784 2785 2785 2786 2786 2787 2789 2791 2793 2795 2797 2798 2800 2802 2804 2805 2807 2807 2808 2810 2811 2813 2815 2818
2833 2832 2831 2830 2829 2829 2828 2827 2826 2825 2824 2823 2822 2822 2821 2820 2819 2819 2818 2817 2817 2815 2814 2812 2810 2809 2808 2807 2806 2805 2804 2803 2802 2801 2799 2797 2795 2793 2792 2790 2788 2787 2786 2784 2783 2782 2781 2780 2779 2779 2778 2777 2777 2777 2777 2777 2778 2778 2779 2779 2779 2780 2781 2782 2782 2783 2784 2785 2787 2788 2790 2792 2794 2796 2798 2799 2801 2802 2803 2804 2806 2808 2810 2812 2814
2828 2827 2826 2825 2824 2823 2822 2822 2821 2820 2819 2818 2818 2817 2816 2815 2814 2813 2812 2812 2811 2810 2809 2808 2806 2805 2803 2802 2801 2800 2799 2798 2797 2795 2794 2793 2791 2789 2788 2786 2785 2783 2782 2781 2779 2778 2777 2777 2776 2776 2775 2775 2774 2774 2774 2774 2774 2775 2775 2776 2776 2777 2777 2778 2779 2780 2782 2783 2785 2786 2788 2789 2791 2793 2794 2796 2798 2799 2800 2801 2803 2805 2807 2809 2810
2823 2822 2822 2821 2820 2819 2818 2817 2816 2816 2815 2814 2813 2812 2811 2810 2809 2809 2808 2807 2806 2805 2804 2803 2802 2800 2799 2797 2796 2795 2794 2793 2792 2791 2789 2788 2787 2786 2784 2783 2781 2780 2779 2778 2776 2775 2774 2774 2773 2773 2773 2772 2772 2772 2772 2772 2772 2772 2773 2773 2773 2774 2774 2775 2776 2777 2778 2780 2782 2784 2786 2787 2789 2790 2792 2793 2795 2796 2797 2798 2799 2801 2802 2804 2805
2819 2818 2817 2816 2815 2814 2813 2813 2812 2811 2810 2809 2809 2808 2807 2806 2805 2804 2803 2802 2801 2800 2799 2798 2797 2796 2795 2793 2792 2791 2790 2788 2787 2787 2786 2785 2783 2782 2781 2780 2778 2777 2776 2775 2774 2772 2772 2771 2771 2770 2770 2770 2770 2769 2769 2769 2769 2770 2770 2770 2771 2771 2772 2772 2773 2774 2775 2776 2778 2779 2781 2783 2784 2786 2788 2789 2791 2792 2793 2794 2795 2796 2797 2799 2800
2815 2814 2813 2812 2811 2810 2809 2808 2807 2807 2806 2805 2804 2803 2802 2802 2801 2800 2799 2798 2797 2796 2795 2794 2793 2792 2791 2790 2789 2787 2786 2785 2784 2783 2782 2781 2780 2779 2778 2777 2775 2774 2773 2772 2771 2770 2769 2769 2768 2768 2767 2767 2767 2767 2767 2767 2767 2767 2768 2768 2768 2769 2769 2770 2771 2772 2773 2774 2775 2776 2777 2779 2780 2782 2783 2785 2786 2787 2788 2789 2790 2791 2792 2793 2794
2811 2810 2809 2808 2807 2806 2805 2804 2803 2802 2801 2800 2799 2799 2798 2797 2796 2795 2794 2794 2793 2792 2791 2789 2788 2787 2787 2786 2785 2784 2783 2782 2781 2780 2779 2778 2777 2776 2775 2774 2773 2772 2771 2770 2769 2768 2767 2767 2766 2766 2765 2765 2765 2765 2765 2765 2765 2765 2765 2766 2766 2767 2767 2768 2768 2769 2770 2771 2772 2773 2775 2776 2777 2778 2779 2780 2781 2782 2783 2784 2785 2786 2787 2788 2789
2808 2807 2805 2804 2803 2802 2801 2799 2798 2797 2796 2796 2795 2794 2793 2792 2792 2791 2790 2789 2788 2787 2786 2785 2784 2783 2783 2782 2781 2781 2780 2779 2778 2777 2776 2775 2774 2773 2772 2771 2770 2769 2768 2767 2767 2766 2765 2765 2764 2764 2763 2763 2762 2762 2762 2762 2763 2763 2763 2763 2764 2764 2765 2765 2766 2767 2767 2768 2769 2770 2771 2772 2773 2774 2775 2776 2777 2777 2778 2779 2780 2781 2782 2783 2784
2804 2803 2802 2801 2799 2798 2797 2796 2794 2793 2792 2791 2790 2789 2789 2788 2787 2786 2785 2784 2783 2783 2782 2781 2780 2779 2779 2778 2777 2777 2776 2776 2775 2774 2773 2772 2771 2770 2769 2769 2768 2767 2766 2766 2765 2764 2763 2763 2762 2762 2761 2761 2761 2760 2760 2760 2760 2761 2761 2761 2761 2762 2762 2763 2763 2764 2764 2765 2766 2766 2767 2768 2769 2770 2770 2771 2772 2773 2774 2774 2775 2776 2777 2778 2778
2799 2798 2797 2796 2795 2794 2793 2792 2791 2789 2788 2787 2786 2785 2784 2783 2782 2781 2780 2779 2778 2778 2777 2776 2775 2775 2774 2774 2773 2773 2772 2772 2771 2770 2769 2768 2767 2767 2766 2766 2765 2764 2764 2763 2763 2762 2762 2761 2760 2760 2760 2759 2759 2759 2758 2759 2759 2759 2759 2759 2759 2760 2760 2760 2761 2761 2762 2762 2763 2763 2764 2765 2766 2766 2767 2768 2769 2769 2770 2771 2771 2772 2773 2773 2774
2795 2794 2793 2792 2791 2790 2789 2788 2787 2786 2784 2784 2783 2781 2780 2779 2778 2777 2776 2775 2774 2773 2772 2771 2771 2770 2770 2769 2769 2768 2768 2767 2767 2766 2766 2765 2764 2763 2763 2762 2762 2761 2761 2760 2760 2760 2759 2759 2759 2758 2758 2758 2757 2757 2757 2757 2757 2757 2757 2757 2757 2757 2758 2758 2759 2759 2759 2760 2760 2761 2761 2762 2763 2763 2764 2765 2765 2766 2766 2767 2767 2768 2769 2769 2769
2791 2790 2789 2787 2787 2786 2785 2784 2783 2782 2781 2780 2779 2778 2776 2775 2774 2773 2772 2771 2769 2768 2767 2767 2766 2766 2765 2765 2764 2764 2763 2763 2763 2762 2762 2761 2761 2760 2759 2759 2758 2758 2758 2757 2757 2757 2756 2756 2756 2756 2755 2755 2755 2755 2754 2754 2754 2754 2754 2754 2754 2754 2755 2755 2756 2756 2756 2757 2757 2758 2758 2759 2759 2760 2760 2761 2761 2762 2762 2763 2763 2764 2764 2765 2765
2786 2785 2784 2783 2782 2781 2781 2780 2779 2778 2777 2776 2775 2774 2773 2772 2770 2769 2768 2767 2766 2764 2763 2763 2762 2762 2761 2761 2760 2760 2759 2759 2758 2758 2758 2758 2757 2757 2756 2755 2755 2754 2754 2754 2754 2753 2753 2753 2753 2753 2752 2752 2752 2751 2751 2751 2751 2751 2751 2751 2751 2751 2751 2752 2752 2753 2753 2753 2754 2754 2755 2755 2755 2756 2756 2757 2757 2758 2758 2759 2759 2759 2760 2760 2760
2782 2781 2780 2779 2778 2777 2777 2776 2775 2774 2773 2772 2771 2770 2769 2768 2767 2766 2765 2763 2762 2761 2760 2759 2758 2758 2757 2757 2756 2756 2755 2755 2754 2754 2754 2754 2753 2753 2753 2752 2752 2751 2751 2750 2750 2750 2750 2749 2749 2749 2749 2749 2749 2748 2748 2748 2748 2748 2748 2748 2748 2748 2748 2748 2749 2749 2750 2750 2750 2751 2751 2752 2752 2752 2753 2753 2753 2754 2754 2755 2755 2755 2756 2756 2756
2777 2776 2776 2775 2774 2773 2772 2772 2771 2770 2769 2769 2768 2767 2766 2765 2764 2763 2762 2760 2759 2758 2757 2756 2755 2755 2754 2754 2753 2753 2752 2751 2751 2751 2750 2750 2750 2750 2749 2749 2749 2748 2748 2747 2747 2746 2746 2746 2746 2746 2746 2746 2746 2746 2745 2745 2745 2745 2745 2745 2745 2745 2745 2745 2746 2746 2747 2747 2747 2748 2748 2748 2749 2749 2749 2750 2750 2750 2751 2751 2751 2751 2752 2752 2752
2773 2772 2771 2770 2770 2769 2768 2767 2767 2766 2765 2765 2764 2763 2762 2762 2761 2760 2759 2758 2756 2755 2754 2753 2753 2752 2751 2750 2750 2749 2749 2748 2748 2748 2747 2747 2746 2746 2746 2746 2745 2745 2745 2744 2744 2743 2743 2743 2743 2743 2743 2743 2743 2743 2743 2743 2743 2743 2743 2743 2743 2743 2743 2743 2743 2744 2744 2744 2744 2745 2745 2745 2746 2746 2746 2747 2747 2747 2748 2748 2748 2748 2748 2748 2749
2768 2767 2766 2766 2765 2764 2764 2763 2763 2762 2761 2761 2760 2760 2759 2758 2757 2757 2756 2755 2754 2753 2752 2751 2750 2749 2749 2748 2747 2746 2746 2745 2745 2745 2744 2744 2744 2743 2743 2743 2742 2742 2742 2742 2741 2741 2741 2741 2740 2740 2740 2740 2740 2740 2740 2740 2740 2740 2741 2741 2740 2741 2741 2741 2741 2741 2741 2741 2742 2742 2742 2743 2743 2743 2744 2744 2744 2744 2745 2745 2745 2745 2745 2746 2746
2763 2762 2762 2761 2761 2760 2760 2759 2758 2758 2757 2757 2756 2756 2755 2754 2754 2753 2752 2752 2751 2750 2750 2749 2748 2747 2746 2746 2745 2744 2743 2743 2742 2742 2742 2741 2741 2741 2740 2740 2740 2739 2739 2739 2739 2739 2738 2738 2738 2738 2738 2738 2737 2737 2737 2738 2738 2738 2738 2738 2738 2738 2739 2739 2739 2739 2739 2739 2739 2740 2740 2740 2740 2741 2741 2741 2741 2741 2742 2742 2742 2742 2742 2743 2743